SCP
0 0 0 0 0 0 0 0 0 0 0 0 0 0 0 0 0 0 0 0 0 0 0 0 0 0 0 0 0 0 0 0 0 0 0 0 0 0 0 0 0 0 0 0 0 0 0 0 0 0 0 0 0 0
0 0 0 0 0 0 0 0 0 0 0 0 0 0 0 0 0 0 0 0 0 0 0 0 0 0 0 0 0 0 0 0 0 0 0 0 0 0 0 0 0 0 0 0 0 0 0 0 0 0 0 0 0 0
0 0 0 0 0 0 0 0 0 0 0 0 0 0 0 0 0 0 0 0 0 0 0 0 0 0 0 0 0 0 0 0 0 0 0 0 0 0 0 0 0 0 0 0 0 0 0 0 0 0 0 0 0 0
0 0 0 0 0 0 0 0 0 0 0 0 0 0 0 0 0 0 0 0 0 0 0 0 0 0 0 0 0 0 0 0 0 0 0 0 0 0 0 0 0 0 0 0 0 0 0 0 0 0 0 0 0 0
-0 0 0 0 0 0 0 0 0 0 0 0 0 0 0 0 0 0 0 0 0 0 0 0 0 0 0 0 0 0 0 0 0 0 0 0 0 0 0 0 0 0 0 0 0 0 0 0 0 0 0 0 0 0
-0 0 0 0 0 0 0 0 0 0 0 0 0 0 0 0 0 0 0 0 0 0 0 0 0 0 0 0 0 0 0 0 0 0 0 0 0 0 0 0 0 0 0 0 0 0 0 0 0 0 0 0 0 0
-0 0 0 0 0 0 0 0 0 0 0 0 0 0 0 0 0 0 0 0 0 0 0 0 0 0 0 0 0 0 0 0 0 0 0 0 0 0 0 0 0 0 0 0 0 0 0 0 0 0 0 0 0 0
-0 0 -0 0 0 0 0 0 0 0 0 0 0 0 0 0 0 0 0 -0 0 0 0 0 0 0 0 0 0 0 0 0 0 0 0 0 0 0 0 0 0 -0 -0 -0 0 0 0 0 0 0 0 0 0 0
-0 -0 0 0 0 0 0 0 0 0 0 0 0 0 0 0 0 0 0 0 0 0 0 0 0 0 0 0 0 0 0 0 0 0 0 0 0 0 0 0 0 0 0 -0 -0 -0 0 0 0 0 0 0 0 0
-0 -0 -0 0 0 0 0 0 0 0 0 0 0 0 0 0 0 0 0 0 0 0 0 0 0 0 0 0 0 0 0 0 -0 0 0 0 0 0 0 0 0 0 -0 -0 -0 -0 0 -0 0 0 0 0 0 -0
0 0 0 0 0 0 0 0 0 0 0 0 0 0 0 0 0 0 0 0 0 0 0 0 0 0 0 0 0 0 0 0 0 0 0 0 0 0 0 0 0 0 0 -0 -0 -0 -0 -0 0 0 0 0 -0 -0
0 0 0 0 0 0 0 0 0 0 0 0 0 0 0 0 0 0 0 0 0 0 0 0 0 0 0 0 0 0 0 0 0 0 0 0 0 -0 0 0 0 0 0 -0 0 0 0 0 0 -0 -0 -0 -0 -0
0 0 0 0 0 0 0 0 0 0 0 0 0 0 0 0 0 0 0 0 0 0 0 0 0 0 0 0 0 0 0 0 0 0 0 0 0 0 0 0 0 0 0 -0 0 0 0 0 0 -0 -0 -0 -0 -0
0 0 0 0 0 0 0 0 0 0 0 0 0 0 0 0 0 0 0 0 0 0 0 -0 0 0 0 0 0 0 0 0 0 0 0 0 0 0 0 0 0 0 0 0 0 0 0 0 0 -0 -0 -0 -0 -0
0 0 0 0 0 0 0 0 0 0 0 0 0 0 0 0 0 0 0 0 0 0 0 0 0 0 0 0 0 0 0 0 0 0 0 0 0 0 0 0 0 -0 -0 0 0 0 0 0 0 0 -0 -0 -0 -0
0 0 0 0 0 0 0 0 0 0 0 0 0 0 0 0 0 0 0 0 0 0 0 0 0 0 0 0 0 0 0 0 0 0 0 0 0 0 0 0 0 -0 0 0 0 0 0 0 0 0 0 -0 -0 -0
0 0 0 0 0 0 0 0 0 0 0 0 0 0 0 0 0 0 0 0 0 0 0 0 0 0 0 0 0 0 0 0 0 0 0 0 0 0 0 0 0 0 0 0 0 0 0 0 0 0 0 0 -0 -0
0 0 0 0 0 0 0 0 0 0 0 0 0 0 0 0 0 0 0 0 0 0 0 0 0 0 0 0 0 0 0 0 0 0 0 0 0 0 0 0 0 0 0 0 0 0 0 0 0 0 0 0 0 0
0 0 0 0 0 0 0 0 0 0 0 0 0 0 0 0 0 0 0 0 0 0 0 0 0 0 0 -0 -0 -0 0 0 0 0 0 0 0 0 0 0 0 0 0 0 0 0 0 0 0 0 0 0 0 0
0 0 0 0 0 0 0 0 0 0 0 0 0 0 0 0 0 0 0 0 0 0 0 0 -0 -0 0 -0 -0 -0 0 0 0 0 0 0 0 0 0 0 0 0 0 0 0 0 0 0 0 0 0 0 0 0
0 0 0 0 0 0 0 0 0 0 0 0 0 0 0 0 0 0 0 0 0 0 0 -0 -0 0 0 0 0 -0 0 0 0 0 0 0 0 0 0 0 0 0 0 0 0 0 0 0 0 0 0 0 0 0
0 0 0 0 0 0 0 0 0 0 0 0 0 0 0 0 0 0 0 0 0 0 0 0 0 0 0 0 0 0 0 0 0 0 0 0 0 0 0 0 0 0 0 0 0 0 0 0 0 0 0 0 0 0
0 0 0 0 0 0 0 0 0 0 0 0 0 0 0 0 0 0 0 0 0 0 0 0 0 0 0 0 0 0 0 0 0 0 0 0 0 0 0 0 0 0 0 0 0 0 0 0 0 0 0 0 0 0
0 0 0 0 0 0 0 0 0 0 0 0 0 0 0 0 0 0 -0 0 0 0 0 0 0 0 0 0 0 0 0 -0 0 0 -0 0 0 0 0 0 0 0 0 0 0 0 0 0 0 0 0 0 0 0
0 0 0 0 0 0 0 0 0 0 0 0 0 0 0 0 0 0 0 0 0 0 0 0 0 0 0 0 0 0 -0 -0 -0 0 -0 0 0 0 0 0 0 0 0 0 0 0 0 0 0 0 0 0 0 0
0 0 0 0 0 0 0 0 0 0 0 0 0 0 0 0 0 0 0 0 0 -0 -0 -0 -0 -0 -0 0 0 0 -0 -0 -0 0 0 0 0 0 0 0 0 0 0 0 0 0 0 0 0 0 0 0 -0 -0
0 0 0 0 0 0 0 0 0 0 0 0 0 0 0 0 0 0 0 0 0 0 0 0 0 0 0 0 0 -0 -0 -0 -0 0 0 0 0 0 0 0 0 0 0 0 0 0 0 0 0 0 0 0 -0 -0
0 0 0 0 0 0 0 0 0 0 0 0 0 0 0 0 0 0 -0 0 0 0 0 0 0 0 0 0 0 0 -0 -0 0 0 0 0 0 0 0 0 0 0 0 0 0 0 0 0 0 0 -0 -0 -0 -0
0 0 0 0 0 0 0 0 0 0 0 0 0 0 0 0 -0 -0 -0 -0 -0 0 0 0 0 0 0 0 0 -0 -0 -0 0 0 0 0 0 0 0 0 0 0 0 0 0 0 0 0 0 0 -0 -0 -0 -0
0 0 0 0 0 0 0 0 0 0 0 0 0 0 0 -0 -0 -0 -0 -0 -0 0 0 0 0 0 0 0 0 0 -0 -0 0 0 0 0 0 0 0 0 0 0 0 0 0 0 0 0 0 0 -0 -0 -0 -0
0 0 0 0 0 0 0 0 0 0 0 -0 -0 -0 -0 -0 -0 -0 -0 -0 0 0 0 0 0 0 0 0 0 0 0 -0 0 0 -0 0 0 0 0 0 0 0 0 0 0 0 0 0 0 -0 -0 -0 -0 -0
0 0 0 0 0 0 0 0 0 0 -0 -0 -0 -0 0 -0 -0 -0 -0 -0 0 0 0 0 0 0 0 0 0 0 0 0 -0 0 0 0 0 0 0 0 0 0 0 0 0 0 0 0 0 -0 -0 -0 -0 -0
-0 -0 -0 -0 0 0 0 0 0 -0 -0 -0 -0 -0 0 0 0 0 0 -0 0 0 0 0 0 0 0 0 0 0 0 0 -0 0 0 0 0 0 0 0 0 0 0 0 0 0 0 -0 -0 -0 -0 -0 -0 -0
Wind_Speed_500mb
71 64 77 74 68 66 54 51 44 38 33 28 23 19 16 16 17 17 15 14 12 6 25 22 12 13 18 7 4 19 6 7 11 9 6 5 4 3 6 6 8 5 8 6 6 8 5 11 6 14 13 11 8 10
74 58 70 76 71 65 60 49 44 39 33 28 22 17 16 15 16 16 16 10 11 16 17 15 26 30 33 29 14 13 7 7 13 6 7 3 5 5 3 1 8 3 6 8 10 10 8 6 11 18 11 10 15 19
60 66 68 73 71 65 56 51 46 37 31 27 22 17 14 14 15 16 18 9 5 13 27 24 19 7 21 31 17 8 4 14 9 19 5 4 5 2 4 4 4 4 1 1 5 5 9 8 10 6 5 13 13 14
57 69 69 79 70 68 61 52 47 42 34 28 22 18 14 14 14 16 15 13 5 8 7 12 7 7 9 23 27 23 29 31 24 20 4 3 4 1 2 4 4 7 4 5 5 11 11 5 12 9 8 4 9 19
70 82 74 77 64 68 57 53 46 40 34 29 24 17 14 13 13 13 15 19 14 5 7 24 37 15 28 29 27 32 33 28 28 11 1 4 4 2 3 2 7 11 10 8 10 9 5 11 5 10 16 11 14 17
83 86 76 69 69 60 54 48 43 35 31 28 25 19 15 12 11 9 8 19 24 13 8 7 15 11 10 16 23 40 34 30 18 10 7 8 4 3 1 5 15 25 23 25 5 14 13 12 11 18 19 21 22 23
76 81 58 71 66 55 48 41 37 34 31 28 25 18 14 11 14 12 5 13 21 14 5 10 14 8 10 11 19 28 40 25 18 10 9 6 3 7 3 6 16 23 28 20 15 12 15 3 10 16 23 26 25 27
69 56 70 69 57 49 45 41 37 31 29 27 22 17 14 10 12 19 15 18 13 11 7 5 8 13 7 7 12 22 30 15 17 14 5 6 4 4 7 30 43 34 31 31 23 29 14 13 14 20 28 33 33 34
73 68 69 55 51 47 43 39 35 30 27 26 23 15 8 7 8 10 21 11 11 5 4 6 3 6 17 2 5 24 26 3 12 7 9 7 4 8 19 41 31 30 24 24 8 9 20 11 27 35 40 37 39 42
75 69 55 51 47 48 42 36 36 32 29 27 21 9 6 4 12 21 13 5 10 7 9 7 8 6 9 10 5 3 12 8 8 13 14 8 8 44 54 58 40 37 45 43 23 24 11 19 34 46 42 36 38 38
68 58 53 51 48 46 39 35 39 36 32 22 8 3 2 19 16 4 5 4 7 6 12 14 20 6 2 2 4 7 4 5 7 9 12 8 8 23 64 68 58 30 36 49 38 24 22 26 42 46 46 45 41 34
62 66 50 46 45 44 40 38 38 35 20 13 10 9 18 6 5 4 6 4 8 8 11 11 13 19 8 6 4 7 4 3 10 4 6 5 9 40 47 57 61 44 32 46 36 19 23 24 46 43 42 41 36 37
57 57 46 46 47 44 37 34 33 27 24 11 5 6 3 5 3 8 9 6 4 8 14 14 5 12 7 7 1 3 5 9 12 5 8 1 31 22 32 51 57 56 46 47 54 40 22 26 43 42 38 35 38 43
65 47 43 43 43 43 37 32 35 25 12 5 7 4 6 5 8 8 8 6 11 10 9 10 6 6 7 3 4 5 7 6 6 6 6 5 39 53 34 31 43 63 56 47 34 33 30 37 46 41 35 40 49 44
62 43 38 39 41 42 37 32 33 29 5 1 2 5 10 17 12 12 25 23 27 17 4 8 8 2 4 3 6 6 7 8 6 5 5 34 53 52 44 27 38 64 66 69 59 45 33 44 49 46 42 48 47 38
45 36 39 40 41 40 36 34 34 26 4 3 7 6 9 2 13 11 15 6 9 12 8 5 5 3 6 5 7 10 5 2 8 13 48 54 51 50 50 38 37 55 61 74 74 61 54 58 57 47 47 49 41 35
45 37 45 45 42 38 36 35 19 10 8 6 8 15 22 24 21 19 14 2 17 4 1 4 4 7 1 6 6 2 6 7 28 45 54 62 59 55 47 47 34 47 57 70 76 62 60 62 51 49 56 50 41 40
48 39 47 49 52 46 40 16 9 11 9 17 9 13 7 10 22 18 6 3 8 10 5 3 5 3 4 5 6 4 26 38 53 62 60 65 54 39 45 48 27 39 49 65 70 72 71 64 58 58 54 52 49 47
43 38 52 57 55 33 12 13 8 9 22 11 18 29 23 23 27 18 13 5 3 4 3 2 0 4 6 6 8 19 38 42 61 68 67 54 48 37 42 33 11 46 63 69 76 73 68 64 64 61 61 59 57 52
39 38 54 55 45 11 9 9 14 6 8 12 17 27 22 17 20 19 16 10 6 3 1 4 7 9 15 26 32 34 38 44 55 58 65 59 47 44 36 20 12 39 59 71 75 67 69 66 60 62 63 63 60 56
44 44 49 51 42 12 8 10 12 12 8 10 13 20 13 20 28 30 32 23 15 11 8 17 29 35 35 40 45 45 48 53 50 44 53 56 53 44 36 11 22 42 61 74 72 73 72 67 66 66 64 61 52 53
52 61 45 48 11 16 9 16 10 8 11 11 6 8 6 8 19 27 22 25 14 23 32 46 46 48 53 53 48 50 56 56 48 47 47 37 51 41 29 2 35 51 61 69 81 85 76 67 67 65 60 56 53 52
60 52 16 17 9 13 9 16 11 10 6 9 13 4 5 6 9 19 13 20 36 49 53 53 54 50 56 59 57 62 54 48 44 43 34 39 44 33 34 20 40 57 59 66 75 75 70 66 64 62 57 57 58 55
53 28 14 22 15 12 10 10 14 8 7 4 6 7 7 12 9 9 8 13 43 50 54 57 55 60 60 60 60 55 50 44 29 38 28 34 40 36 18 29 43 46 60 69 76 68 66 68 66 62 63 64 60 57
14 14 14 9 14 9 9 8 8 6 7 8 6 5 6 7 3 6 7 17 33 32 36 40 47 50 55 57 59 50 43 28 32 36 29 32 35 19 16 49 53 54 63 72 70 70 72 70 69 69 65 63 61 55
5 16 19 22 15 12 11 10 11 11 7 9 9 8 11 5 6 10 6 6 8 13 23 22 24 23 34 40 42 34 27 23 26 33 39 38 24 20 19 48 53 57 64 72 74 74 74 75 77 67 58 57 54 50
8 11 15 17 14 11 8 10 11 7 10 11 6 6 4 6 9 8 14 3 22 27 32 32 33 27 29 32 24 21 32 16 21 35 44 31 18 13 30 58 66 67 75 72 68 71 76 75 71 61 56 59 53 51
11 10 12 19 12 14 8 8 9 12 8 9 9 8 8 10 9 5 8 19 26 32 35 38 34 34 30 24 23 27 12 21 25 39 31 13 21 28 42 59 57 60 67 67 63 62 63 64 65 58 56 62 58 58
9 9 20 8 7 8 12 12 12 19 20 20 10 9 11 27 25 28 35 39 44 47 46 37 37 34 25 26 20 16 20 27 34 16 13 16 10 25 58 60 58 62 64 62 60 57 58 58 56 58 60 56 60 58
8 21 12 16 10 12 13 19 27 37 35 30 26 22 29 41 45 46 50 50 49 44 44 40 43 43 41 28 15 15 22 10 15 16 15 9 6 34 53 63 61 60 61 62 68 68 61 63 65 64 59 66 64 64
9 20 10 8 10 27 29 29 26 28 31 31 34 38 45 50 51 51 47 46 45 46 46 50 50 46 40 18 24 24 13 8 8 9 12 16 16 31 60 66 60 58 62 69 68 69 73 72 69 65 65 68 68 64
13 17 18 7 8 19 29 32 37 35 36 38 41 45 49 48 51 67 70 61 58 54 55 49 44 34 15 14 15 10 3 25 16 13 10 21 35 48 55 58 61 62 65 68 70 69 69 67 69 69 68 71 69 63
22 12 11 9 7 6 10 10 8 10 24 33 46 53 60 50 36 58 52 44 39 38 37 32 23 19 21 19 13 6 15 18 21 22 33 46 47 44 52 56 61 63 66 69 66 63 60 60 66 67 72 73 68 63
Wind_Direction_500mb
223 228 235 226 219 205 199 207 206 205 203 202 206 209 208 207 211 207 195 213 213 262 276 259 258 260 288 298 2 315 320 355 333 60 41 342 30 5 46 2 334 191 142 150 94 93 242 1 72 155 225 173 188 185
222 228 234 224 207 200 194 199 199 197 196 196 198 199 200 204 209 203 185 192 217 251 262 267 259 257 253 257 304 311 311 310 34 35 27 313 327 4 116 295 341 324 203 173 163 215 244 275 255 277 240 210 178 187
215 228 218 212 202 191 188 191 188 187 191 189 192 194 198 203 208 206 193 206 311 299 293 280 259 217 235 226 226 272 314 17 4 337 220 252 285 147 68 298 298 308 350 57 65 269 268 1 55 42 282 221 175 205
209 210 215 200 188 182 185 183 186 189 196 193 191 192 197 204 211 215 204 192 249 286 283 280 305 219 166 179 210 239 264 292 310 314 253 208 235 23 187 235 220 220 336 219 252 285 300 89 70 98 101 162 178 181
210 207 204 197 192 179 173 187 190 192 194 194 194 193 198 205 213 223 209 197 219 245 294 295 300 270 226 224 235 231 251 274 296 305 285 237 229 109 326 339 252 193 193 177 220 200 175 248 158 153 163 169 172 174
200 195 188 178 167 172 182 183 186 186 189 191 189 192 195 204 202 186 177 211 203 230 299 295 305 281 195 213 201 214 240 255 248 285 267 281 253 142 151 258 256 238 242 245 287 236 248 280 192 180 183 180 175 180
194 179 178 165 163 173 176 176 177 180 181 181 184 187 193 204 200 198 165 164 184 196 264 293 302 290 323 221 226 221 232 254 234 244 234 242 235 157 177 248 259 252 254 247 255 214 256 308 186 178 194 178 180 179
164 165 158 156 162 169 171 169 169 164 171 170 173 181 194 209 223 215 152 136 149 182 229 283 275 311 12 201 191 195 203 247 229 229 231 207 172 169 248 248 265 282 288 245 225 228 291 288 157 173 186 180 174 176
157 159 152 162 166 164 164 169 166 161 154 162 167 172 183 206 206 182 182 204 248 233 253 239 263 275 334 277 221 175 162 231 291 203 221 171 195 220 236 256 279 288 242 236 89 233 234 188 166 176 184 177 181 175
153 154 160 161 160 163 159 158 157 156 158 158 156 166 183 146 137 130 143 190 204 240 227 253 254 267 332 338 309 306 179 182 184 222 193 193 240 243 259 269 271 300 244 248 269 289 241 205 192 188 191 199 195 186
154 156 158 161 161 161 158 157 160 159 154 150 154 93 320 146 134 154 166 181 205 246 215 232 221 231 298 303 297 360 317 207 190 235 171 209 239 232 247 255 264 277 228 234 239 254 261 252 211 197 195 196 196 191
165 161 159 163 163 164 165 165 164 159 145 125 109 102 120 174 194 172 205 202 195 229 203 190 217 204 236 248 281 348 276 246 236 134 145 232 254 236 243 253 249 236 230 225 222 240 251 235 208 206 199 195 194 191
175 162 170 168 168 167 164 167 162 158 144 114 105 137 183 180 96 205 197 238 240 218 189 173 157 160 179 220 329 37 294 239 321 167 204 126 347 310 262 247 246 242 242 216 222 231 252 234 215 213 204 197 191 183
163 162 169 171 170 168 172 167 165 165 154 109 146 162 229 214 236 199 204 222 256 297 174 122 151 158 157 126 217 216 253 306 267 214 156 308 339 342 329 276 256 238 225 224 222 231 228 221 214 209 207 199 188 181
160 167 175 174 172 171 171 166 175 175 137 155 173 233 218 240 273 289 277 275 267 270 255 114 135 121 44 282 201 252 243 252 228 28 26 325 324 334 335 313 253 238 233 232 238 230 227 214 207 199 197 194 189 181
156 169 181 173 169 169 167 168 172 171 183 250 239 282 294 306 331 327 320 226 127 190 130 110 108 120 175 233 219 219 251 75 359 330 326 322 321 322 331 321 266 242 237 235 235 230 209 203 198 189 187 188 185 183
170 182 174 167 162 163 166 167 165 158 203 238 254 258 268 280 271 284 338 152 150 153 37 108 140 196 195 237 234 22 53 306 315 317 314 325 319 319 332 322 282 229 227 231 226 214 203 194 187 185 184 181 182 182
187 178 170 164 166 169 171 169 154 180 221 242 252 267 282 283 327 334 326 185 161 172 185 224 146 172 242 280 14 5 310 305 310 308 313 330 332 324 337 330 287 219 223 223 215 198 190 185 184 187 181 175 178 178
185 174 173 177 178 160 132 181 215 206 227 250 259 264 278 293 303 314 321 264 182 157 178 147 336 211 236 211 229 307 310 315 308 315 322 332 341 326 333 334 267 205 209 203 187 185 187 186 186 181 178 178 179 175
183 179 181 186 182 148 135 171 192 235 229 221 245 255 252 265 294 294 288 250 221 188 247 212 219 227 241 281 294 289 297 310 309 310 319 332 345 341 336 325 208 201 195 190 181 184 182 181 183 181 180 179 177 173
174 177 180 183 185 168 199 188 197 214 228 224 245 242 245 237 244 259 250 233 204 194 234 241 253 274 282 293 301 299 297 299 304 305 309 319 335 337 337 295 206 192 188 189 179 183 182 179 179 180 178 177 177 172
180 173 165 184 170 189 230 211 221 208 208 232 245 217 213 210 228 243 258 197 226 233 241 263 280 291 293 297 308 305 302 303 304 301 309 315 330 329 327 137 185 186 186 183 187 179 177 177 176 175 174 173 171 165
171 175 134 159 176 177 229 196 221 213 182 211 196 206 258 226 233 229 213 227 248 257 261 270 280 284 288 295 299 302 301 298 300 297 307 317 320 333 311 202 180 190 197 190 188 176 171 171 171 170 169 169 166 166
160 155 155 183 186 199 186 204 209 212 218 171 152 191 222 214 217 223 240 246 260 269 266 268 273 278 277 281 286 299 309 308 283 293 308 318 313 321 285 205 187 198 200 189 183 170 167 168 167 166 168 168 169 174
133 156 162 186 202 191 202 171 176 177 200 202 200 246 253 187 198 247 236 273 283 292 293 286 276 272 269 276 283 292 302 291 287 295 299 303 312 328 156 188 197 204 196 185 175 168 166 166 165 163 165 168 172 179
164 191 177 188 175 180 179 159 184 195 172 184 229 222 201 165 216 256 233 356 359 6 1 346 321 306 291 286 289 297 292 283 297 292 298 306 320 11 178 184 188 191 190 184 173 165 164 166 166 167 171 176 181 183
181 189 199 196 186 179 156 166 168 150 186 200 204 190 193 240 239 246 163 51 342 338 343 346 346 325 292 290 295 265 281 292 285 295 307 313 300 318 191 187 190 182 179 177 168 167 164 164 168 173 180 184 181 177
234 199 176 180 191 202 156 149 161 188 200 208 161 186 207 211 230 126 358 338 336 331 323 324 335 339 322 286 276 289 258 246 268 296 317 306 255 258 207 181 184 180 175 170 165 166 166 165 174 181 184 179 175 172
229 202 177 164 178 199 214 194 205 199 198 197 182 209 241 254 266 281 297 302 304 305 307 313 320 330 312 277 266 319 285 280 289 306 334 317 294 189 168 176 180 181 178 174 172 171 169 169 176 176 174 171 165 163
232 186 174 169 177 207 225 212 230 249 242 239 255 265 268 276 281 286 288 288 284 279 285 295 298 309 324 310 272 303 313 270 240 261 228 207 275 192 180 181 179 178 178 178 177 176 174 172 170 169 167 163 163 163
191 179 176 189 201 227 236 239 242 244 250 259 269 270 276 284 284 282 276 270 267 266 275 282 288 298 309 283 270 296 292 187 250 238 309 242 204 185 178 172 171 170 173 177 175 170 169 170 169 165 164 165 167 165
196 191 170 186 245 228 226 235 244 252 261 263 265 264 267 267 267 280 277 277 274 273 267 275 282 281 268 221 248 271 245 170 133 260 315 148 148 165 168 169 171 172 175 175 169 169 170 170 169 167 168 172 169 169
207 204 197 202 198 211 219 224 243 251 252 258 262 263 261 253 252 258 261 263 260 262 262 267 258 257 214 196 189 228 174 162 137 129 136 145 147 155 171 179 175 170 171 171 169 168 172 174 171 173 174 173 172 171
Wind_Speed_850mb
71 64 77 74 68 66 54 51 44 38 33 28 23 19 16 16 17 17 15 14 12 6 25 22 12 13 18 7 4 19 6 7 11 9 6 5 4 3 6 6 8 5 8 6 6 8 5 11 6 14 13 11 8 10
74 58 70 76 71 65 60 49 44 39 33 28 22 17 16 15 16 16 16 10 11 16 17 15 26 30 33 29 14 13 7 7 13 6 7 3 5 5 3 1 8 3 6 8 10 10 8 6 11 18 11 10 15 19
60 66 68 73 71 65 56 51 46 37 31 27 22 17 14 14 15 16 18 9 5 13 27 24 19 7 21 31 17 8 4 14 9 19 5 4 5 2 4 4 4 4 1 1 5 5 9 8 10 6 5 13 13 14
57 69 69 79 70 68 61 52 47 42 34 28 22 18 14 14 14 16 15 13 5 8 7 12 7 7 9 23 27 23 29 31 24 20 4 3 4 1 2 4 4 7 4 5 5 11 11 5 12 9 8 4 9 19
70 82 74 77 64 68 57 53 46 40 34 29 24 17 14 13 13 13 15 19 14 5 7 24 37 15 28 29 27 32 33 28 28 11 1 4 4 2 3 2 7 11 10 8 10 9 5 11 5 10 16 11 14 17
83 86 76 69 69 60 54 48 43 35 31 28 25 19 15 12 11 9 8 19 24 13 8 7 15 11 10 16 23 40 34 30 18 10 7 8 4 3 1 5 15 25 23 25 5 14 13 12 11 18 19 21 22 23
76 81 58 71 66 55 48 41 37 34 31 28 25 18 14 11 14 12 5 13 21 14 5 10 14 8 10 11 19 28 40 25 18 10 9 6 3 7 3 6 16 23 28 20 15 12 15 3 10 16 23 26 25 27
69 56 70 69 57 49 45 41 37 31 29 27 22 17 14 10 12 19 15 18 13 11 7 5 8 13 7 7 12 22 30 15 17 14 5 6 4 4 7 30 43 34 31 31 23 29 14 13 14 20 28 33 33 34
73 68 69 55 51 47 43 39 35 30 27 26 23 15 8 7 8 10 21 11 11 5 4 6 3 6 17 2 5 24 26 3 12 7 9 7 4 8 19 41 31 30 24 24 8 9 20 11 27 35 40 37 39 42
75 69 55 51 47 48 42 36 36 32 29 27 21 9 6 4 12 21 13 5 10 7 9 7 8 6 9 10 5 3 12 8 8 13 14 8 8 44 54 58 40 37 45 43 23 24 11 19 34 46 42 36 38 38
68 58 53 51 48 46 39 35 39 36 32 22 8 3 2 19 16 4 5 4 7 6 12 14 20 6 2 2 4 7 4 5 7 9 12 8 8 23 64 68 58 30 36 49 38 24 22 26 42 46 46 45 41 34
62 66 50 46 45 44 40 38 38 35 20 13 10 9 18 6 5 4 6 4 8 8 11 11 13 19 8 6 4 7 4 3 10 4 6 5 9 40 47 57 61 44 32 46 36 19 23 24 46 43 42 41 36 37
57 57 46 46 47 44 37 34 33 27 24 11 5 6 3 5 3 8 9 6 4 8 14 14 5 12 7 7 1 3 5 9 12 5 8 1 31 22 32 51 57 56 46 47 54 40 22 26 43 42 38 35 38 43
65 47 43 43 43 43 37 32 35 25 12 5 7 4 6 5 8 8 8 6 11 10 9 10 6 6 7 3 4 5 7 6 6 6 6 5 39 53 34 31 43 63 56 47 34 33 30 37 46 41 35 40 49 44
62 43 38 39 41 42 37 32 33 29 5 1 2 5 10 17 12 12 25 23 27 17 4 8 8 2 4 3 6 6 7 8 6 5 5 34 53 52 44 27 38 64 66 69 59 45 33 44 49 46 42 48 47 38
45 36 39 40 41 40 36 34 34 26 4 3 7 6 9 2 13 11 15 6 9 12 8 5 5 3 6 5 7 10 5 2 8 13 48 54 51 50 50 38 37 55 61 74 74 61 54 58 57 47 47 49 41 35
45 37 45 45 42 38 36 35 19 10 8 6 8 15 22 24 21 19 14 2 17 4 1 4 4 7 1 6 6 2 6 7 28 45 54 62 59 55 47 47 34 47 57 70 76 62 60 62 51 49 56 50 41 40
48 39 47 49 52 46 40 16 9 11 9 17 9 13 7 10 22 18 6 3 8 10 5 3 5 3 4 5 6 4 26 38 53 62 60 65 54 39 45 48 27 39 49 65 70 72 71 64 58 58 54 52 49 47
43 38 52 57 55 33 12 13 8 9 22 11 18 29 23 23 27 18 13 5 3 4 3 2 0 4 6 6 8 19 38 42 61 68 67 54 48 37 42 33 11 46 63 69 76 73 68 64 64 61 61 59 57 52
39 38 54 55 45 11 9 9 14 6 8 12 17 27 22 17 20 19 16 10 6 3 1 4 7 9 15 26 32 34 38 44 55 58 65 59 47 44 36 20 12 39 59 71 75 67 69 66 60 62 63 63 60 56
44 44 49 51 42 12 8 10 12 12 8 10 13 20 13 20 28 30 32 23 15 11 8 17 29 35 35 40 45 45 48 53 50 44 53 56 53 44 36 11 22 42 61 74 72 73 72 67 66 66 64 61 52 53
52 61 45 48 11 16 9 16 10 8 11 11 6 8 6 8 19 27 22 25 14 23 32 46 46 48 53 53 48 50 56 56 48 47 47 37 51 41 29 2 35 51 61 69 81 85 76 67 67 65 60 56 53 52
60 52 16 17 9 13 9 16 11 10 6 9 13 4 5 6 9 19 13 20 36 49 53 53 54 50 56 59 57 62 54 48 44 43 34 39 44 33 34 20 40 57 59 66 75 75 70 66 64 62 57 57 58 55
53 28 14 22 15 12 10 10 14 8 7 4 6 7 7 12 9 9 8 13 43 50 54 57 55 60 60 60 60 55 50 44 29 38 28 34 40 36 18 29 43 46 60 69 76 68 66 68 66 62 63 64 60 57
14 14 14 9 14 9 9 8 8 6 7 8 6 5 6 7 3 6 7 17 33 32 36 40 47 50 55 57 59 50 43 28 32 36 29 32 35 19 16 49 53 54 63 72 70 70 72 70 69 69 65 63 61 55
5 16 19 22 15 12 11 10 11 11 7 9 9 8 11 5 6 10 6 6 8 13 23 22 24 23 34 40 42 34 27 23 26 33 39 38 24 20 19 48 53 57 64 72 74 74 74 75 77 67 58 57 54 50
8 11 15 17 14 11 8 10 11 7 10 11 6 6 4 6 9 8 14 3 22 27 32 32 33 27 29 32 24 21 32 16 21 35 44 31 18 13 30 58 66 67 75 72 68 71 76 75 71 61 56 59 53 51
11 10 12 19 12 14 8 8 9 12 8 9 9 8 8 10 9 5 8 19 26 32 35 38 34 34 30 24 23 27 12 21 25 39 31 13 21 28 42 59 57 60 67 67 63 62 63 64 65 58 56 62 58 58
9 9 20 8 7 8 12 12 12 19 20 20 10 9 11 27 25 28 35 39 44 47 46 37 37 34 25 26 20 16 20 27 34 16 13 16 10 25 58 60 58 62 64 62 60 57 58 58 56 58 60 56 60 58
8 21 12 16 10 12 13 19 27 37 35 30 26 22 29 41 45 46 50 50 49 44 44 40 43 43 41 28 15 15 22 10 15 16 15 9 6 34 53 63 61 60 61 62 68 68 61 63 65 64 59 66 64 64
9 20 10 8 10 27 29 29 26 28 31 31 34 38 45 50 51 51 47 46 45 46 46 50 50 46 40 18 24 24 13 8 8 9 12 16 16 31 60 66 60 58 62 69 68 69 73 72 69 65 65 68 68 64
13 17 18 7 8 19 29 32 37 35 36 38 41 45 49 48 51 67 70 61 58 54 55 49 44 34 15 14 15 10 3 25 16 13 10 21 35 48 55 58 61 62 65 68 70 69 69 67 69 69 68 71 69 63
22 12 11 9 7 6 10 10 8 10 24 33 46 53 60 50 36 58 52 44 39 38 37 32 23 19 21 19 13 6 15 18 21 22 33 46 47 44 52 56 61 63 66 69 66 63 60 60 66 67 72 73 68 63
Wind_Direction_850mb
223 228 235 226 219 205 199 207 206 205 203 202 206 209 208 207 211 207 195 213 213 262 276 259 258 260 288 298 2 315 320 355 333 60 41 342 30 5 46 2 334 191 142 150 94 93 242 1 72 155 225 173 188 185
222 228 234 224 207 200 194 199 199 197 196 196 198 199 200 204 209 203 185 192 217 251 262 267 259 257 253 257 304 311 311 310 34 35 27 313 327 4 116 295 341 324 203 173 163 215 244 275 255 277 240 210 178 187
215 228 218 212 202 191 188 191 188 187 191 189 192 194 198 203 208 206 193 206 311 299 293 280 259 217 235 226 226 272 314 17 4 337 220 252 285 147 68 298 298 308 350 57 65 269 268 1 55 42 282 221 175 205
209 210 215 200 188 182 185 183 186 189 196 193 191 192 197 204 211 215 204 192 249 286 283 280 305 219 166 179 210 239 264 292 310 314 253 208 235 23 187 235 220 220 336 219 252 285 300 89 70 98 101 162 178 181
210 207 204 197 192 179 173 187 190 192 194 194 194 193 198 205 213 223 209 197 219 245 294 295 300 270 226 224 235 231 251 274 296 305 285 237 229 109 326 339 252 193 193 177 220 200 175 248 158 153 163 169 172 174
200 195 188 178 167 172 182 183 186 186 189 191 189 192 195 204 202 186 177 211 203 230 299 295 305 281 195 213 201 214 240 255 248 285 267 281 253 142 151 258 256 238 242 245 287 236 248 280 192 180 183 180 175 180
194 179 178 165 163 173 176 176 177 180 181 181 184 187 193 204 200 198 165 164 184 196 264 293 302 290 323 221 226 221 232 254 234 244 234 242 235 157 177 248 259 252 254 247 255 214 256 308 186 178 194 178 180 179
164 165 158 156 162 169 171 169 169 164 171 170 173 181 194 209 223 215 152 136 149 182 229 283 275 311 12 201 191 195 203 247 229 229 231 207 172 169 248 248 265 282 288 245 225 228 291 288 157 173 186 180 174 176
157 159 152 162 166 164 164 169 166 161 154 162 167 172 183 206 206 182 182 204 248 233 253 239 263 275 334 277 221 175 162 231 291 203 221 171 195 220 236 256 279 288 242 236 89 233 234 188 166 176 184 177 181 175
153 154 160 161 160 163 159 158 157 156 158 158 156 166 183 146 137 130 143 190 204 240 227 253 254 267 332 338 309 306 179 182 184 222 193 193 240 243 259 269 271 300 244 248 269 289 241 205 192 188 191 199 195 186
154 156 158 161 161 161 158 157 160 159 154 150 154 93 320 146 134 154 166 181 205 246 215 232 221 231 298 303 297 360 317 207 190 235 171 209 239 232 247 255 264 277 228 234 239 254 261 252 211 197 195 196 196 191
165 161 159 163 163 164 165 165 164 159 145 125 109 102 120 174 194 172 205 202 195 229 203 190 217 204 236 248 281 348 276 246 236 134 145 232 254 236 243 253 249 236 230 225 222 240 251 235 208 206 199 195 194 191
175 162 170 168 168 167 164 167 162 158 144 114 105 137 183 180 96 205 197 238 240 218 189 173 157 160 179 220 329 37 294 239 321 167 204 126 347 310 262 247 246 242 242 216 222 231 252 234 215 213 204 197 191 183
163 162 169 171 170 168 172 167 165 165 154 109 146 162 229 214 236 199 204 222 256 297 174 122 151 158 157 126 217 216 253 306 267 214 156 308 339 342 329 276 256 238 225 224 222 231 228 221 214 209 207 199 188 181
160 167 175 174 172 171 171 166 175 175 137 155 173 233 218 240 273 289 277 275 267 270 255 114 135 121 44 282 201 252 243 252 228 28 26 325 324 334 335 313 253 238 233 232 238 230 227 214 207 199 197 194 189 181
156 169 181 173 169 169 167 168 172 171 183 250 239 282 294 306 331 327 320 226 127 190 130 110 108 120 175 233 219 219 251 75 359 330 326 322 321 322 331 321 266 242 237 235 235 230 209 203 198 189 187 188 185 183
170 182 174 167 162 163 166 167 165 158 203 238 254 258 268 280 271 284 338 152 150 153 37 108 140 196 195 237 234 22 53 306 315 317 314 325 319 319 332 322 282 229 227 231 226 214 203 194 187 185 184 181 182 182
187 178 170 164 166 169 171 169 154 180 221 242 252 267 282 283 327 334 326 185 161 172 185 224 146 172 242 280 14 5 310 305 310 308 313 330 332 324 337 330 287 219 223 223 215 198 190 185 184 187 181 175 178 178
185 174 173 177 178 160 132 181 215 206 227 250 259 264 278 293 303 314 321 264 182 157 178 147 336 211 236 211 229 307 310 315 308 315 322 332 341 326 333 334 267 205 209 203 187 185 187 186 186 181 178 178 179 175
183 179 181 186 182 148 135 171 192 235 229 221 245 255 252 265 294 294 288 250 221 188 247 212 219 227 241 281 294 289 297 310 309 310 319 332 345 341 336 325 208 201 195 190 181 184 182 181 183 181 180 179 177 173
174 177 180 183 185 168 199 188 197 214 228 224 245 242 245 237 244 259 250 233 204 194 234 241 253 274 282 293 301 299 297 299 304 305 309 319 335 337 337 295 206 192 188 189 179 183 182 179 179 180 178 177 177 172
180 173 165 184 170 189 230 211 221 208 208 232 245 217 213 210 228 243 258 197 226 233 241 263 280 291 293 297 308 305 302 303 304 301 309 315 330 329 327 137 185 186 186 183 187 179 177 177 176 175 174 173 171 165
171 175 134 159 176 177 229 196 221 213 182 211 196 206 258 226 233 229 213 227 248 257 261 270 280 284 288 295 299 302 301 298 300 297 307 317 320 333 311 202 180 190 197 190 188 176 171 171 171 170 169 169 166 166
160 155 155 183 186 199 186 204 209 212 218 171 152 191 222 214 217 223 240 246 260 269 266 268 273 278 277 281 286 299 309 308 283 293 308 318 313 321 285 205 187 198 200 189 183 170 167 168 167 166 168 168 169 174
133 156 162 186 202 191 202 171 176 177 200 202 200 246 253 187 198 247 236 273 283 292 293 286 276 272 269 276 283 292 302 291 287 295 299 303 312 328 156 188 197 204 196 185 175 168 166 166 165 163 165 168 172 179
164 191 177 188 175 180 179 159 184 195 172 184 229 222 201 165 216 256 233 356 359 6 1 346 321 306 291 286 289 297 292 283 297 292 298 306 320 11 178 184 188 191 190 184 173 165 164 166 166 167 171 176 181 183
181 189 199 196 186 179 156 166 168 150 186 200 204 190 193 240 239 246 163 51 342 338 343 346 346 325 292 290 295 265 281 292 285 295 307 313 300 318 191 187 190 182 179 177 168 167 164 164 168 173 180 184 181 177
234 199 176 180 191 202 156 149 161 188 200 208 161 186 207 211 230 126 358 338 336 331 323 324 335 339 322 286 276 289 258 246 268 296 317 306 255 258 207 181 184 180 175 170 165 166 166 165 174 181 184 179 175 172
229 202 177 164 178 199 214 194 205 199 198 197 182 209 241 254 266 281 297 302 304 305 307 313 320 330 312 277 266 319 285 280 289 306 334 317 294 189 168 176 180 181 178 174 172 171 169 169 176 176 174 171 165 163
232 186 174 169 177 207 225 212 230 249 242 239 255 265 268 276 281 286 288 288 284 279 285 295 298 309 324 310 272 303 313 270 240 261 228 207 275 192 180 181 179 178 178 178 177 176 174 172 170 169 167 163 163 163
191 179 176 189 201 227 236 239 242 244 250 259 269 270 276 284 284 282 276 270 267 266 275 282 288 298 309 283 270 296 292 187 250 238 309 242 204 185 178 172 171 170 173 177 175 170 169 170 169 165 164 165 167 165
196 191 170 186 245 228 226 235 244 252 261 263 265 264 267 267 267 280 277 277 274 273 267 275 282 281 268 221 248 271 245 170 133 260 315 148 148 165 168 169 171 172 175 175 169 169 170 170 169 167 168 172 169 169
207 204 197 202 198 211 219 224 243 251 252 258 262 263 261 253 252 258 261 263 260 262 262 267 258 257 214 196 189 228 174 162 137 129 136 145 147 155 171 179 175 170 171 171 169 168 172 174 171 173 174 173 172 171